Spearfish, SD

11:02 PM MDT on June 24, 2017 (GMT -0600)
Black Hills-Ice

Weather History for KSPF - October, 2013

Change the Weather History Date:

Tuesday, October 8, 2013

  Actual Average (KEFC) Record (KEFC)
Temperature  
Mean Temperature 48 °F -  
Max Temperature 59 °F 67 °F 90 °F (1975)
Min Temperature 37 °F 34 °F 17 °F (1970)
Degree Days  
Heating Degree Days 17    
Moisture  
Dew Point 30 °F    
Average Humidity 51    
Maximum Humidity 70    
Minimum Humidity 31    
Precipitation  
Precipitation 0.00 in - - ()
Sea Level Pressure  
Sea Level Pressure 29.78 in    
Wind  
Wind Speed 12 mph (SW)    
Max Wind Speed 32 mph    
Max Gust Speed 44 mph    
Visibility 10 miles    
Events      
Averages and records for this station are not official NWS values.
T = Trace of Precipitation, MM = Missing Value Source: NWS Daily Summary

Daily Weather History Graph

Daily Weather History Graph

Search for Another Location

Airport or City:

Trip Planner

Search our weather history database for the weather conditions in past years. The results will help you decide how hot, cold, wet, or windy it might be!

Date:

Astronomy

Oct. 08, 2013 Rise Set
Actual Time 8:01 AM CDT 7:22 PM CDT
Civil Twilight 7:32 AM CDT 7:51 PM CDT
Nautical Twilight 6:59 AM CDT 8:25 PM CDT
Astronomical Twilight 6:25 AM CDT 8:58 PM CDT
Moon 12:07 PM CDT (10/8) 9:52 PM CDT (10/8)
Length of Visible Light 12h 18m
Length of Day
11h 20m
Waxing Crescent, 16% of the Moon is Illuminated
Oct 8
Waxing Crescent
Oct 11
First Quarter
Oct 18
Full
Oct 26
Last Quarter
Nov 3
New

Hourly Weather History & Observations

Time (CDT) Temp. Windchill Dew Point Humidity Pressure Visibility Wind Dir Wind Speed Gust Speed Precip Events Conditions
12:15 AM 57.2 °F - 32.0 °F 38% 29.70 in 10.0 mi SW 32.2 mph 43.7 mph N/A   Clear
12:35 AM 57.2 °F - 32.0 °F 38% 29.71 in 10.0 mi SW 26.5 mph 34.5 mph N/A   Clear
12:55 AM 57.2 °F - 32.0 °F 38% 29.71 in 10.0 mi SW 18.4 mph 27.6 mph N/A   Clear
1:15 AM 57.2 °F - 32.0 °F 38% 29.71 in 10.0 mi WSW 13.8 mph 24.2 mph N/A   Clear
1:35 AM 59.0 °F - 30.2 °F 34% 29.70 in 10.0 mi WSW 8.1 mph - N/A   Clear
1:55 AM 59.0 °F - 30.2 °F 34% 29.71 in 10.0 mi NW 6.9 mph - N/A   Clear
2:15 AM 59.0 °F - 28.4 °F 31% 29.68 in 10.0 mi SW 29.9 mph 36.8 mph N/A   Clear
2:35 AM 57.2 °F - 30.2 °F 36% 29.67 in 10.0 mi SSW 29.9 mph 36.8 mph N/A   Clear
2:55 AM 57.2 °F - 30.2 °F 36% 29.68 in 10.0 mi SW 26.5 mph 39.1 mph N/A   Clear
3:15 AM 55.4 °F - 30.2 °F 38% 29.69 in 10.0 mi WSW 15.0 mph 26.5 mph N/A   Clear
3:35 AM 57.2 °F - 30.2 °F 36% 29.68 in 10.0 mi NNW 3.5 mph - N/A   Clear
3:55 AM 55.4 °F - 28.4 °F 36% 29.69 in 10.0 mi South 3.5 mph - N/A   Clear
4:15 AM 55.4 °F - 28.4 °F 36% 29.69 in 10.0 mi Calm Calm - N/A   Clear
4:35 AM 57.2 °F - 32.0 °F 38% 29.69 in 10.0 mi NNE 4.6 mph - N/A   Clear
4:55 AM 59.0 °F - 30.2 °F 34% 29.69 in 10.0 mi WNW 4.6 mph - N/A   Clear
5:15 AM 48.2 °F - 32.0 °F 54% 29.70 in 10.0 mi NW 4.6 mph - N/A   Clear
5:35 AM 53.6 °F - 28.4 °F 38% 29.71 in 10.0 mi West 4.6 mph - N/A   Clear
5:55 AM 53.6 °F - 30.2 °F 41% 29.72 in 10.0 mi NW 4.6 mph - N/A   Clear
6:15 AM 53.6 °F - 32.0 °F 44% 29.73 in 10.0 mi West 9.2 mph - N/A   Clear
6:35 AM 53.6 °F - 32.0 °F 44% 29.74 in 10.0 mi West 10.4 mph - N/A   Clear
6:55 AM 50.0 °F - 32.0 °F 50% 29.73 in 10.0 mi West 10.4 mph - N/A   Clear
7:15 AM 50.0 °F - 32.0 °F 50% 29.74 in 10.0 mi West 13.8 mph - N/A   Clear
7:35 AM 48.2 °F - 32.0 °F 54% 29.75 in 10.0 mi WSW 9.2 mph - N/A   Clear
7:55 AM 46.4 °F 41.5 °F 32.0 °F 57% 29.75 in 10.0 mi West 10.4 mph - N/A   Clear
8:15 AM 46.4 °F - 32.0 °F 57% 29.76 in 10.0 mi Calm Calm - N/A   Clear
8:35 AM 48.2 °F - 32.0 °F 54% 29.77 in 10.0 mi West 6.9 mph - N/A   Clear
8:55 AM 48.2 °F - 32.0 °F 54% 29.78 in 10.0 mi WNW 6.9 mph - N/A   Clear
9:15 AM 46.4 °F 42.9 °F 32.0 °F 57% 29.79 in 10.0 mi WSW 6.9 mph - N/A   Clear
9:35 AM 44.6 °F 40.7 °F 32.0 °F 61% 29.80 in 10.0 mi West 6.9 mph - N/A   Clear
9:55 AM 48.2 °F - 32.0 °F 54% 29.80 in 10.0 mi West 10.4 mph - N/A   Clear
10:15 AM 46.4 °F 42.4 °F 32.0 °F 57% 29.81 in 10.0 mi West 8.1 mph - N/A   Clear
10:35 AM 44.6 °F - 32.0 °F 61% 29.81 in 10.0 mi Calm Calm - N/A   Clear
10:55 AM 48.2 °F - 33.8 °F 58% 29.82 in 10.0 mi West 6.9 mph - N/A   Clear
11:15 AM 48.2 °F - 33.8 °F 58% 29.82 in 10.0 mi West 5.8 mph - N/A   Clear
11:35 AM 48.2 °F - 33.8 °F 58% 29.82 in 10.0 mi West 5.8 mph - N/A   Clear
11:55 AM 50.0 °F - 32.0 °F 50% 29.81 in 10.0 mi WSW 5.8 mph - N/A   Clear
12:15 PM 48.2 °F - 33.8 °F 58% 29.81 in 10.0 mi West 3.5 mph - N/A   Clear
12:35 PM 51.8 °F - 33.8 °F 50% 29.81 in 10.0 mi Calm Calm - N/A   Clear
12:55 PM 55.4 °F - 32.0 °F 41% 29.81 in 10.0 mi Calm Calm - N/A   Clear
1:15 PM 57.2 °F - 28.4 °F 33% 29.81 in 10.0 mi Calm Calm - N/A   Clear
1:35 PM 55.4 °F - 28.4 °F 36% 29.80 in 10.0 mi Calm Calm - N/A   Clear
1:55 PM 53.6 °F - 28.4 °F 38% 29.79 in 10.0 mi Calm Calm - N/A   Clear
2:15 PM 53.6 °F - 28.4 °F 38% 29.79 in 10.0 mi SE 4.6 mph - N/A   Clear
2:35 PM 55.4 °F - 28.4 °F 36% 29.78 in 10.0 mi Calm Calm - N/A   Clear
2:55 PM 57.2 °F - 28.4 °F 33% 29.78 in 10.0 mi Calm Calm - N/A   Clear
3:15 PM 57.2 °F - 28.4 °F 33% 29.79 in 10.0 mi Calm Calm - N/A   Clear
3:35 PM 53.6 °F - 26.6 °F 35% 29.79 in 10.0 mi Calm Calm - N/A   Clear
3:55 PM 48.2 °F - 30.2 °F 50% 29.79 in 10.0 mi SE 5.8 mph - N/A   Clear
4:15 PM 44.6 °F 40.7 °F 32.0 °F 61% 29.80 in 10.0 mi SE 6.9 mph - N/A   Clear
4:35 PM 44.6 °F 40.7 °F 30.2 °F 57% 29.80 in 10.0 mi SE 6.9 mph - N/A   Clear
4:55 PM 44.6 °F 40.7 °F 30.2 °F 57% 29.80 in 10.0 mi SE 6.9 mph - N/A   Clear
5:15 PM 41.0 °F 35.8 °F 30.2 °F 65% 29.80 in 10.0 mi SE 8.1 mph - N/A   Clear
5:35 PM 44.6 °F 41.4 °F 28.4 °F 53% 29.80 in 10.0 mi ESE 5.8 mph - N/A   Clear
5:55 PM 44.6 °F 41.4 °F 30.2 °F 57% 29.80 in 10.0 mi ESE 5.8 mph - N/A   Clear
6:15 PM 41.0 °F 36.4 °F 30.2 °F 65% 29.80 in 10.0 mi SE 6.9 mph - N/A   Clear
6:35 PM 44.6 °F 39.7 °F 28.4 °F 53% 29.81 in 10.0 mi SSE 9.2 mph - N/A   Clear
6:55 PM 44.6 °F 40.7 °F 28.4 °F 53% 29.81 in 10.0 mi ESE 6.9 mph - N/A   Clear
7:15 PM 41.0 °F 35.8 °F 30.2 °F 65% 29.82 in 10.0 mi ESE 8.1 mph - N/A   Clear
7:35 PM 41.0 °F 35.8 °F 28.4 °F 61% 29.83 in 10.0 mi ESE 8.1 mph - N/A   Clear
7:55 PM 39.2 °F 33.0 °F 30.2 °F 70% 29.84 in 10.0 mi ESE 9.2 mph - N/A   Clear
8:15 PM 39.2 °F 32.5 °F 28.4 °F 65% 29.84 in 10.0 mi ESE 10.4 mph - N/A   Clear
8:35 PM 39.2 °F 32.5 °F 28.4 °F 65% 29.85 in 10.0 mi East 10.4 mph - N/A   Clear
8:55 PM 39.2 °F 33.6 °F 28.4 °F 65% 29.86 in 10.0 mi ESE 8.1 mph - N/A   Clear
9:15 PM 37.4 °F 32.1 °F 28.4 °F 70% 29.87 in 10.0 mi SE 6.9 mph - N/A   Clear
9:35 PM 39.2 °F - 30.2 °F 70% 29.88 in 10.0 mi Calm Calm - N/A   Clear
9:55 PM 39.2 °F 35.9 °F 30.2 °F 70% 29.89 in 10.0 mi SW 4.6 mph - N/A   Clear
10:15 PM 39.2 °F 34.2 °F 30.2 °F 70% 29.89 in 10.0 mi South 6.9 mph - N/A   Partly Cloudy
10:35 PM 39.2 °F 35.0 °F 30.2 °F 70% 29.91 in 10.0 mi SSW 5.8 mph - N/A   Clear
10:55 PM 39.2 °F 33.6 °F 28.4 °F 65% 29.91 in 10.0 mi SSW 8.1 mph - N/A   Clear
11:15 PM 39.2 °F 35.0 °F 28.4 °F 65% 29.92 in 10.0 mi SSW 5.8 mph - N/A   Clear
11:35 PM 39.2 °F 35.9 °F 28.4 °F 65% 29.92 in 10.0 mi WSW 4.6 mph - N/A   Clear
11:55 PM 41.0 °F 39.0 °F 28.4 °F 61% 29.93 in 10.0 mi SW 3.5 mph - N/A   Clear